{"data":{"norad_id":53633,"intl_designator":"2022-104AX","name":"STARLINK-4593","alt_names":[],"object_type":"PAYLOAD","status":"ACTIVE","operator":null,"country":"US","launch_date":"2022-08-28","launch_site_code":"AFETR","launch_vehicle":null,"mission":null,"orbit_class":"UNKNOWN","rcs_meters":null,"size_class":null,"mass_kg":null,"dimensions":null,"purposes":["comms"],"wikipedia_slug":null,"has_3d_model":false,"image_url":null,"decayed_at":null,"tle_current":{"epoch":"2026-09-20T14:03:41.947488Z","epoch_age_seconds":74263,"freshness":"FRESH","line1":"1 53633U 22104AX  26263.58590217  .00000421  00000+0  23610-4 0  9997","line2":"2 53633  53.1583  61.1264 0001213  60.4865 299.6259 15.34395633225422","mean_motion":15.34395633,"eccentricity":0.0001213,"inclination_deg":53.1583,"raan_deg":61.1264,"arg_perigee_deg":60.4865,"mean_anomaly_deg":299.6259,"bstar":2.361e-5,"rev_number":22542,"period_min":93.848025178784,"perigee_km":461.88642438662,"apogee_km":463.54601537776,"semimajor_km":6840.8532198822,"source":"CELESTRAK","updated_at":"2026-09-21T09:00:32.945260Z"}}}